Location: Brie
(49.8750°N, 2.9325°E)
Time: 23:20:11
(UTC+00:00)

Daily predictions for brighter satellites

Satellite Brightness Start Highest point End
(mag) Time Altitude Azimuth Time Altitude Azimuth Time Altitude Azimuth
Cosmos 2263 Rocket 2.9 19:43:45 10° SW 19:49:16 62° WNW 19:54:50 10° NNE
FALCON 9 DEB 3.9 19:47:37 10° WNW 19:50:25 35° SSW 19:53:14 10° SE
Cosmos 1606 2.9 19:47:30 10° S 19:51:07 48° E 19:54:48 10° NNE
Cosmos 1500 Rocket 3.6 19:46:42 10° N 19:51:08 81° ENE 19:55:30 10° SSE
IRS-1A Rocket 4.5 19:46:19 10° SSE 19:52:05 88° WSW 19:58:00 10° NNW
Cosmos 1844 Rocket 3.1 19:49:36 10° S 19:54:43 39° ESE 19:59:52 10° NE
Intercosmos 25 Rocket 4.4 19:49:13 10° N 19:56:52 73° ENE 20:01:24 10° SSE
FALCON 9 DEB 3.7 19:54:45 10° WNW 19:57:39 39° SSW 20:00:32 10° SE
Cosmos 2221 2.8 19:54:47 10° SSW 19:59:05 72° WNW 20:03:26 10° N
IGS 5A 3.7 19:58:36 10° SSE 20:02:39 54° ENE 20:06:43 10° N
MetOp-B 4.5 19:58:42 10° SE 20:03:51 51° ENE 20:09:03 10° N
Cosmos 1553 Rocket 4.0 19:59:57 10° S 20:06:02 74° E 20:12:15 10° NNE
USA 245 4.0 20:04:37 10° ESE 20:06:09 16° ENE 20:07:40 10° NNE
Ariane Rocket 3.3 20:02:23 10° S 20:07:24 68° WSW 20:12:29 10° NNW
Intercosmos 24 4.3 20:04:23 10° SSE 20:07:57 37° E 20:11:17 10° NNE
SPOT 5 4.4 20:04:56 10° ESE 20:09:00 25° ENE 20:13:14 10° N
CZ-4C R/B 3.6 20:03:58 10° NW 20:10:25 45° NNE 20:18:02 10° ESE
Cosmos 1844 4.1 20:06:17 10° S 20:11:40 43° ESE 20:17:00 10° NE
Resurs 01 Rocket 1.6 20:07:17 10° SSE 20:11:44 78° ENE 20:16:12 10° NNW
ERBS 4.1 20:09:21 10° W 20:12:23 33° NNW 20:15:27 10° NE
SPOT 1/Viking Rocket 4.0 20:07:42 10° SE 20:12:41 48° ENE 20:17:41 10° N
ERS-2 4.2 20:11:54 10° N 20:15:10 32° WNW 20:18:25 10° SW
USA 290 2.7 20:12:27 10° NNW 20:15:37 47° ENE 20:18:18 13° SE
ATLAS 5 CENTAUR R/B 2.5 20:13:00 10° NW 20:18:22 66° NE 20:24:16 12° SE
Cosmos 1417 Rocket 4.5 20:13:39 10° S 20:19:52 79° E 20:26:04 10° NNE
USA 305 3.8 20:17:56 10° WNW 20:22:05 48° N 20:26:14 10° ENE
Terra 3.4 20:19:12 10° ESE 20:22:50 22° ENE 20:26:30 10° N
Sich 1 3.0 20:19:32 10° N 20:23:52 75° ENE 20:28:12 10° SSE
Cosmos 1833 Rocket 3.9 20:20:22 10° NNW 20:25:24 31° NE 20:30:16 11° ESE
Cosmos 1933 3.6 20:21:45 10° S 20:25:39 50° E 20:29:35 10° NNE
SPOT 3 Rocket 3.6 20:20:41 10° SSE 20:25:51 87° WSW 20:31:03 10° NNW
CZ-2C R/B 3.7 20:33:56 10° NNE 20:38:22 61° ESE 20:42:49 10° S
Cosmos 968 Rocket 3.6 20:33:56 10° SSW 20:39:12 82° WNW 20:44:28 10° NNE
USA 306 3.7 20:37:03 10° WNW 20:41:13 50° N 20:45:23 10° E
Cosmos 1437 Rocket 3.2 20:38:01 10° SSW 20:41:50 64° WNW 20:45:47 10° N
Cosmos 1486 Rocket 4.0 20:36:49 10° SSW 20:42:09 87° ESE 20:47:32 10° NNE
X-37B 1.4 20:39:22 10° WSW 20:42:18 33° S 20:43:44 22° SE
BREEZE-M DEB (TANK) 0.8 20:43:42 10° W 20:46:02 85° S 20:47:14 21° E
ATLAS 2AS CENTAUR R/B 4.1 20:41:46 10° NW 20:48:41 35° NNE 20:55:10 10° E
Cosmos 1151 Rocket 3.2 20:46:12 14° SSE 20:49:47 53° E 20:54:03 10° NNE
COSMOS 2406 3.9 20:45:18 10° NNW 20:50:44 44° NE 20:54:50 17° ESE
Gbstr 26 Del rocket 4.4 20:43:09 10° WSW 20:51:05 86° NNW 20:57:51 10° ENE
Meteor 1-20 Rocket 4.4 20:46:09 10° NNW 20:51:48 71° W 20:57:12 10° S
CREW DRAGON DEMO-1 DEB 3.1 20:49:14 10° WNW 20:51:51 54° N 20:53:54 15° ENE
Cosmos 1782 2.9 20:50:08 16° S 20:53:11 55° E 20:57:07 10° NNE
Landsat 7 4.3 20:48:32 10° S 20:53:13 58° W 20:57:56 10° NNW
Cosmos 2082 Rocket 3.5 20:51:31 10° NNW 20:56:25 29° NE 21:00:42 13° ESE
Cosmos 1242 Rocket 2.5 20:55:31 10° SSW 20:59:07 86° W 21:02:42 10° N
ARIANE 5 R/B 2.5 20:57:35 19° SSE 21:00:39 84° ENE 21:05:00 10° NNW
Cosmos 783 Rocket 4.5 20:56:30 10° NNW 21:01:48 87° ENE 21:05:22 21° SSE
USA 215 4.1 20:55:55 10° E 21:02:10 50° N 21:08:26 10° WNW
Cosmos 1500 3.3 20:58:37 10° N 21:02:21 57° ENE 21:04:13 26° SSE
Cosmos 1437 3.1 21:02:00 33° ESE 21:02:28 35° E 21:05:07 10° NNE
CRYOSAT 2 4.4 20:58:41 14° S 21:02:59 84° W 21:07:55 10° N
Cosmos 1515 Rocket 4.3 21:01:08 23° SE 21:03:09 35° E 21:07:10 10° NNE
USA 307 3.5 21:01:58 10° WNW 21:06:11 54° NNE 21:10:05 12° E
Iridium 4 Rocket 4.3 21:05:32 21° SE 21:08:57 44° E 21:14:30 10° NNE
Cosmos 2184 Rocket 4.4 21:04:34 10° N 21:10:36 47° ENE 21:14:20 22° SE
Cosmos 1633 Rocket 3.2 21:07:31 10° NNW 21:11:55 72° W 21:14:59 19° S
Cosmos 773 Rocket 4.0 21:06:35 10° NNW 21:11:56 85° ENE 21:15:14 24° SSE
Cosmos 2084 4.2 21:12:44 28° SE 21:13:26 30° ESE 21:17:08 10° ENE
Cosmos 1709 Rocket 4.2 21:07:39 10° NNW 21:13:46 71° W 21:19:01 14° S
Cosmos 1271 Rocket 4.1 21:14:00 22° ESE 21:14:40 23° E 21:17:53 10° NE
Spot 2 Rocket 3.7 21:11:38 18° S 21:15:25 70° WSW 21:20:29 10° NNW
Cosmos 1602 4.4 21:12:14 10° NNW 21:16:00 51° W 21:18:39 18° SSW
USA 308 3.4 21:15:26 10° WNW 21:19:41 58° NNE 21:23:01 16° E
Cosmos 2074 Rocket 4.3 21:13:36 10° N 21:19:49 56° ENE 21:23:34 24° SE
Cosmos 1470 Rocket 3.5 21:15:38 10° N 21:20:08 83° E 21:22:34 27° SSE
Cosmos 2278 Rocket 2.8 21:21:07 25° SSE 21:23:34 36° ESE 21:28:41 10° NE
Cosmos 1328 Rocket 3.6 21:21:45 18° S 21:25:05 85° W 21:29:33 10° N
SL-4 R/B 4.2 21:23:11 10° W 21:26:09 17° SW 21:27:47 15° SSW
Cosmos 1536 4.2 21:23:37 10° NNE 21:27:02 25° ENE 21:28:14 22° E
JB-3 4.3 21:23:29 10° NNE 21:27:27 84° WNW 21:29:54 22° SSW
BREEZE-M R/B 2.4 21:26:45 10° WSW 21:28:29 39° SW 21:28:29 39° SW
Cosmos 2315 Rocket 4.2 21:22:53 10° SSW 21:29:15 76° W 21:35:40 10° N
CARTOSAT-1 4.1 21:27:34 22° S 21:30:13 55° W 21:34:28 10° NNW
Cosmos 1503 Rocket 4.4 21:27:42 10° SW 21:32:49 63° WNW 21:38:01 10° NNE
ERS-1 Rocket 3.1 21:31:02 24° S 21:34:04 71° WSW 21:39:06 10° NNW
Cosmos 1933 Rocket 3.5 21:30:26 10° N 21:34:48 78° E 21:36:35 35° SSE
Cosmos 1844 Rocket 3.9 21:33:18 10° WSW 21:38:35 42° NW 21:43:54 10° NNE
Cosmos 1777 Rocket 3.9 21:36:27 22° S 21:39:45 67° ESE 21:44:55 10° NNE
Cosmos 1544 4.4 21:43:28 10° NNE 21:46:33 25° ENE 21:47:00 25° E
SPOT 5 3.4 21:43:47 24° S 21:46:41 58° W 21:51:51 10° NNW
Cosmos 1812 2.7 21:46:11 34° SSW 21:47:45 80° W 21:51:39 10° N
Resurs 01 Rocket 4.2 21:46:30 10° WSW 21:48:47 14° W 21:51:05 10° WNW
Cosmos 1943 Rocket 4.2 21:49:38 11° E 21:49:38 11° E 21:51:20 10° ENE
Meteor 1-5 Rocket 4.2 21:45:01 10° NNW 21:50:27 70° W 21:53:15 29° S
SL-24 DEB 4.1 21:55:00 39° SSE 21:56:40 80° E 22:01:18 10° N
Cosmos 2228 Rocket 3.3 21:55:41 42° SE 21:56:43 53° E 22:01:04 10° NNE
CZ-4C R/B 3.0 21:52:25 10° NW 21:59:32 71° SW 22:04:00 30° SSE
Terra 2.2 21:58:05 31° SSW 22:00:14 58° W 22:04:57 10° NNW
SJ 16-02 1.4 22:01:18 46° SSE 22:02:19 59° ESE 22:06:43 10° NNE
USA 305 2.8 21:58:03 10° WNW 22:02:21 84° NNE 22:03:49 41° ESE
ATLAS 5 CENTAUR R/B 3.5 21:57:53 10° WNW 22:02:54 32° WSW 22:05:48 22° SSW
Cosmos 1666 3.3 22:04:58 10° NNW 22:08:34 48° W 22:09:28 39° SW
Cosmos 1833 Rocket 3.0 22:04:08 10° NW 22:09:41 58° WSW 22:11:58 34° S
Cosmos 1743 3.5 22:07:01 10° N 22:10:37 37° ENE 22:11:01 36° E
BREEZE M DEB (TANK) 3.5 22:13:26 10° W 22:14:52 20° W 22:14:52 20° W
Cosmos 1295 Rocket 4.5 22:13:13 10° N 22:19:36 84° E 22:22:21 37° SSE
USA 306 2.8 22:17:08 10° WNW 22:21:25 81° SSW 22:22:09 59° SE
H-2A R/B 4.4 22:21:19 10° N 22:25:22 46° WNW 22:27:26 25° SW
NOSS 3-4 (A) 3.8 22:20:02 10° NW 22:26:57 80° SW 22:30:35 34° SSE
NOSS 3-4 (C) 3.8 22:20:08 10° NW 22:27:03 81° SW 22:30:42 34° SSE
Cosmos 2112 Rocket 4.3 22:22:02 10° NNW 22:27:22 63° ENE 22:29:12 39° SE
Meteor 1-27 Rocket 3.7 22:25:11 38° S 22:27:34 82° E 22:33:30 10° NNE
COSMOS 2406 4.1 22:29:47 10° NW 22:34:59 38° WSW 22:36:54 29° SSW
NOSS 3-3 (A) 4.4 22:31:29 10° WSW 22:37:20 63° NW 22:44:08 10° NE
NOSS 3-3 (C) 4.4 22:31:35 10° WSW 22:37:27 63° NW 22:44:15 10° NE
Gbstr 26 Del rocket 4.2 22:31:18 10° W 22:38:48 78° N 22:44:56 10° E
Cosmos 1862 Rocket 4.4 22:40:02 35° E 22:40:08 35° E 22:44:05 10° NNE
ATLAS 2AS CENTAUR R/B 2.8 22:33:11 10° NW 22:40:42 82° NE 22:44:14 33° SE
Cosmos 2082 Rocket 2.3 22:35:22 10° NW 22:40:55 62° WSW 22:42:32 44° S
SeaSat 1 4.1 22:38:46 10° ENE 22:41:44 19° E 22:41:44 19° E
Cosmos 44 3.8 22:37:16 10° NW 22:42:41 62° NE 22:44:53 34° ESE
Cosmos 1869 Rocket 4.1 22:38:40 10° NNW 22:42:51 49° W 22:43:41 42° SW
SL-8 Rocket 4.1 22:38:04 10° N 22:44:24 65° ENE 22:46:43 40° SE
USA 215 3.3 22:40:07 20° ESE 22:44:51 80° NNE 22:51:25 10° WNW
USA 307 2.9 22:42:03 10° WNW 22:46:10 62° SW 22:46:10 62° SW
Meteor 1-11 Rocket 4.5 22:42:05 10° NNW 22:47:47 48° W 22:50:12 31° SSW
Cosmos 2154 Rocket 4.4 22:41:48 10° NNW 22:47:58 55° W 22:50:42 32° SSW
Cosmos 1271 Rocket 4.1 22:49:05 26° WSW 22:50:29 34° WNW 22:54:11 10° N
Okean 1 3.7 22:52:12 50° E 22:52:12 50° E 22:55:57 10° NNE
Cosmos 1238 Rocket 3.9 22:46:10 10° N 22:52:41 76° E 22:54:36 45° SSE
Cosmos 2084 4.4 22:49:08 12° WSW 22:52:47 47° NW 22:56:57 10° NE
Cosmos 1340 Rocket 2.9 22:51:36 10° NNW 22:55:39 63° W 22:55:53 61° WSW
ALOS 2 2.6 22:55:17 58° ESE 22:55:53 67° ENE 23:00:16 10° N
Cosmos 1680 Rocket 3.5 22:50:34 10° NNW 22:55:53 72° WSW 22:57:07 52° S
Cosmos 1818 4.0 22:51:13 10° NW 22:56:40 59° NE 22:59:08 31° ESE
USA 308 3.3 22:55:31 10° WNW 22:59:06 48° WSW 22:59:06 48° WSW
Cosmos 1937 Rocket 3.7 23:02:14 49° SE 23:02:47 51° ESE 23:07:48 10° NNE
Cosmos 1536 4.0 22:59:51 10° NNW 23:03:30 32° W 23:03:56 31° WSW
Cosmos 1707 Rocket 3.5 23:03:17 64° SW 23:03:52 76° W 23:08:17 10° N
Cosmos 2084 Rocket 4.0 23:00:39 10° NW 23:04:49 55° NE 23:05:58 41° E
Cosmos 2278 Rocket 3.1 23:02:53 14° WSW 23:07:33 46° NW 23:13:01 10° NNE
Cosmos 1515 3.7 23:12:26 78° NNW 23:12:26 78° NNW 23:16:03 10° N
Cosmos 864 Rocket 4.4 23:07:26 10° N 23:13:39 82° E 23:15:36 47° SSE
Cosmos 858 Rocket 4.5 23:14:49 56° SSE 23:15:34 63° ESE 23:20:45 10° NNE
Cosmos 1975 2.8 23:12:09 10° N 23:16:07 68° ENE 23:16:07 68° ENE
Cosmos 1959 Rocket 4.4 23:10:15 10° N 23:16:34 88° E 23:18:32 47° S
Okean 1-7 4.2 23:17:42 29° E 23:17:43 29° E 23:21:26 10° NNE
Cosmos 2369 Rocket 3.1 23:18:48 31° ESE 23:19:15 31° ESE 23:24:10 10° NE
Meteor 2-9 Rocket 4.2 23:17:14 10° NNW 23:23:06 81° W 23:24:36 52° S
ERBS 3.4 23:22:43 10° NW 23:25:54 41° NNE 23:26:01 41° NNE
Cosmos 2181 Rocket 3.9 23:24:49 46° SSW 23:26:50 85° W 23:33:01 10° N
Cosmos 1900 4.4 23:27:44 59° SE 23:28:07 61° ESE 23:33:07 10° NE
Cosmos 1943 Rocket 2.1 23:31:07 54° S 23:32:14 68° ESE 23:37:50 10° NNE
USA 281 4.4 23:27:08 11° ESE 23:32:54 37° NE 23:38:49 10° NNW
Meteor 2-4 Rocket 3.9 23:31:38 47° SSE 23:32:59 60° E 23:38:35 10° NNE
Cosmos 1898 Rocket 3.7 23:34:20 43° SW 23:35:59 68° WNW 23:41:20 10° NNE
Cosmos 1733 Rocket 3.7 23:32:34 10° NNW 23:36:38 40° W 23:36:51 40° W
Meteor 1-18 Rocket 4.2 23:38:34 51° SSW 23:40:05 83° WNW 23:45:45 10° N
SAR-Lupe-2 3.9 23:36:32 10° N 23:39:48 62° NW 23:39:48 62° NW
SJ 16-02 3.6 23:38:14 11° W 23:41:18 20° NW 23:44:39 10° N
Cosmos 2366 rocket 4.1 23:35:24 10° NNW 23:41:29 63° W 23:43:19 44° SSW
Cosmos 1821 Rocket 4.2 23:37:07 10° N 23:43:32 68° ENE 23:45:52 40° SSE
EO 1 Del DPAF 4.4 23:41:46 10° NNE 23:44:43 32° E 23:44:43 32° E
CZ-4C R/B 4.5 23:42:14 10° WNW 23:47:23 20° WSW 23:49:11 19° SW
Cosmos 1908 Rocket 3.4 23:43:02 10° NNW 23:47:33 81° W 23:47:51 75° SSW
SL-27 R/B 3.9 23:47:56 10° N 23:50:52 28° ENE 23:50:59 28° ENE
BREEZE-M DEB (TANK) 3.9 23:38:28 10° WNW 23:51:46 62° SSW 23:52:56 49° SSE
Cosmos 967 Rocket 4.4 23:49:52 43° SW 23:52:08 88° SE 23:58:28 10° NE
BREEZE-M DEB (TANK) 4.1 23:53:43 10° WNW 23:55:48 25° WNW 23:55:48 25° WNW
